Lapse_Rate
3.0 2.8 2.7 3.0 4.0 5.3 6.4 7.4 7.9 7.9 7.7 7.9 7.6 7.5 7.2 7.5 7.2 6.6 6.3 6.0 6.0 5.6 5.9 5.9 5.4 6.5 6.9 7.0 7.1 7.1 7.4 7.7 7.1 6.5 6.5 6.6 6.7 7.1 6.8 6.8 5.9 6.4 7.0 6.5
3.0 3.1 2.7 2.8 3.5 4.7 5.8 6.7 7.4 7.7 7.6 7.6 7.7 7.6 7.3 7.1 6.9 6.9 6.5 6.5 6.1 6.0 5.7 5.7 5.7 5.9 6.8 6.7 7.2 7.1 7.7 7.4 6.7 6.4 6.9 7.1 6.6 6.6 6.7 7.0 7.2 7.1 6.1 5.9
3.0 3.2 3.0 2.8 3.0 4.1 5.4 6.3 6.9 7.3 7.3 7.0 6.8 7.2 7.1 7.1 7.1 6.5 6.3 6.3 6.0 6.0 5.8 5.9 5.7 5.5 6.0 6.5 6.6 7.4 7.5 7.8 7.4 5.9 5.6 6.0 5.6 6.2 6.9 7.3 7.6 7.2 7.0 7.1
3.3 3.0 3.1 3.0 2.8 3.5 4.6 5.9 6.3 6.8 6.9 7.1 6.8 6.5 6.7 6.7 6.5 7.1 6.7 6.7 6.5 5.8 5.2 6.0 5.6 5.3 5.5 6.4 6.5 6.4 7.1 7.5 7.8 7.6 7.7 7.5 7.1 6.7 6.8 7.0 6.7 7.2 6.8 6.9
3.4 3.2 3.1 3.0 3.1 3.0 3.7 4.8 5.7 6.4 6.3 6.5 6.7 6.4 6.1 6.5 6.8 6.1 6.6 6.2 6.0 5.5 5.1 5.2 5.3 5.2 5.6 5.7 6.6 6.5 6.3 6.2 6.9 7.5 7.8 7.7 7.3 7.4 7.7 7.4 7.2 7.2 7.2 7.2
3.5 3.4 3.2 2.9 3.0 3.1 3.6 4.1 4.8 5.7 6.2 6.1 6.3 6.2 6.2 6.4 6.1 6.6 6.2 5.7 6.0 5.7 6.4 5.8 5.9 5.7 5.8 5.9 6.4 6.5 6.5 6.3 6.6 7.0 7.6 7.9 7.7 7.8 7.5 7.3 7.0 7.1 7.2 7.2
3.7 3.6 3.4 3.1 3.0 2.9 2.9 3.3 4.4 5.1 5.9 6.0 6.0 6.3 6.3 6.5 6.5 6.1 6.3 6.1 5.9 5.7 5.8 5.5 5.9 6.2 6.3 6.2 6.5 6.6 6.9 6.4 6.5 7.0 7.6 7.0 7.2 7.3 7.5 7.9 7.8 7.4 7.1 7.4
3.9 3.7 3.6 3.3 3.1 3.0 2.9 2.9 3.4 4.0 5.0 5.8 6.2 6.4 6.4 6.8 7.0 6.7 6.1 6.3 6.5 6.0 5.4 6.2 6.4 6.5 6.4 6.3 6.4 6.4 7.0 6.8 6.4 6.3 6.6 7.2 7.4 7.5 7.1 6.9 6.8 7.5 7.8 7.5
4.3 3.9 3.8 3.7 3.2 3.0 2.9 3.0 3.1 3.7 4.7 5.3 6.0 6.3 6.2 6.3 6.6 7.0 6.5 6.5 6.7 5.8 5.7 5.9 6.2 6.9 6.6 6.6 6.8 6.8 6.6 6.9 6.8 6.4 6.3 6.1 6.3 7.2 7.5 7.6 7.3 7.9 8.0 8.0
4.6 4.4 4.1 3.9 3.5 3.0 3.1 3.2 3.2 3.6 4.6 5.3 5.7 6.1 6.1 6.1 6.1 6.4 6.3 6.7 6.7 5.8 5.6 5.9 6.5 7.0 7.2 6.6 6.5 6.6 6.6 6.6 6.5 6.2 6.4 7.0 6.6 7.0 7.6 7.7 6.5 6.9 7.4 7.6
4.9 4.9 4.5 4.1 3.8 3.3 3.1 3.3 3.3 3.5 4.1 4.9 5.5 5.9 5.8 5.9 6.0 6.1 6.2 6.6 6.4 6.4 6.4 6.6 6.9 6.9 7.0 6.6 6.6 6.5 6.6 6.5 6.4 6.4 6.3 6.3 6.6 7.2 7.5 7.4 7.2 7.3 7.4 7.6
5.1 5.1 4.8 4.6 4.0 3.5 3.3 3.3 3.5 3.5 3.5 4.1 5.0 5.5 5.8 5.7 5.9 6.0 6.2 6.0 6.0 6.1 6.1 6.3 6.4 6.7 7.1 6.9 7.0 6.9 6.8 6.8 7.1 7.2 6.9 7.0 7.1 7.2 7.3 7.8 7.6 7.3 7.5 8.0
5.2 5.3 5.1 4.8 4.4 3.6 3.4 3.4 3.4 3.4 3.8 3.9 4.5 5.3 5.6 5.8 6.0 5.9 5.9 6.1 5.8 5.9 5.8 5.9 6.0 6.4 6.7 6.9 6.9 7.0 7.1 7.0 6.9 7.1 7.1 7.2 7.2 6.9 7.5 7.6 7.7 7.8 7.9 7.9
5.3 5.3 5.4 5.1 4.9 4.1 3.7 3.3 3.4 3.3 3.7 4.0 4.1 4.6 5.0 5.8 6.0 6.1 6.1 6.0 6.0 5.9 5.9 5.8 5.7 6.0 6.1 6.3 6.6 6.8 6.7 6.8 6.9 7.0 7.0 7.1 7.1 6.7 6.9 7.2 7.4 7.4 7.6 7.9
5.5 5.5 5.5 5.2 5.1 4.5 4.2 3.7 3.5 3.6 3.6 3.8 4.0 3.8 4.3 4.9 5.6 6.2 6.4 6.2 6.1 6.1 5.8 5.5 5.5 5.4 5.6 5.6 5.8 6.5 6.3 6.6 6.4 6.8 6.9 6.8 7.0 6.8 6.8 6.7 6.4 6.7 7.2 7.4
5.6 5.5 5.6 5.5 5.4 5.0 4.6 3.9 3.4 3.2 3.6 3.9 4.0 4.1 4.3 4.6 5.1 6.1 6.3 6.3 6.2 5.9 5.8 5.6 5.4 5.2 5.1 5.0 5.1 4.6 5.5 5.8 5.9 6.2 6.4 6.5 6.5 6.7 6.5 6.5 6.6 6.6 6.5 6.7
5.7 5.6 5.6 5.5 5.6 5.0 4.6 4.2 3.6 3.3 3.4 3.4 3.5 3.7 4.1 4.5 5.2 5.8 6.3 6.5 6.4 6.3 5.9 5.6 5.6 5.5 5.3 5.1 4.8 4.8 5.0 5.4 5.6 5.8 5.8 6.3 6.7 6.8 6.7 6.6 6.6 6.7 6.7 6.4
5.7 5.7 5.6 5.5 5.3 5.0 4.9 4.3 3.6 3.5 3.3 3.2 3.0 3.0 3.9 4.0 4.6 5.6 6.1 6.7 6.5 6.1 6.0 5.7 5.8 5.7 5.4 4.8 4.2 4.6 4.7 4.7 4.7 4.9 5.3 5.7 6.0 5.9 6.2 6.3 6.1 6.0 6.4 6.3
5.6 5.7 5.7 5.5 5.5 5.4 5.0 4.1 3.7 3.5 3.5 3.0 2.7 2.3 2.3 3.3 4.0 4.7 5.6 6.3 6.6 6.2 6.1 6.0 5.8 5.3 5.0 4.1 4.3 4.1 4.3 4.2 4.5 4.9 5.0 5.1 5.1 5.3 5.4 5.7 5.8 5.9 5.9 6.2
5.6 5.7 5.7 5.3 5.3 5.1 4.7 4.1 3.8 3.4 3.5 3.1 2.8 2.5 2.6 2.9 3.6 4.2 5.2 5.6 6.3 6.7 6.3 6.2 5.7 4.1 3.4 3.6 3.9 4.0 3.9 3.8 4.0 4.2 4.4 4.4 4.7 5.0 5.2 5.2 5.2 5.3 5.2 5.3
5.6 5.7 5.5 5.3 5.0 4.8 4.5 4.3 4.0 3.3 3.0 2.7 2.7 2.5 2.9 2.9 3.4 4.1 4.6 5.4 6.1 6.6 6.4 6.3 5.4 4.5 4.2 4.0 3.9 3.9 3.8 3.8 3.8 3.9 3.9 3.8 3.9 4.1 4.3 4.4 4.2 4.3 4.3 4.1
5.1 5.5 5.3 5.2 5.1 4.8 4.6 4.3 3.2 3.0 3.0 2.7 3.0 2.8 2.9 3.2 3.4 3.8 4.1 5.0 5.8 6.5 6.4 6.3 4.9 4.2 4.0 3.9 3.9 3.9 3.9 3.8 3.7 3.6 3.6 3.7 3.8 4.0 4.0 4.1 4.0 3.9 3.9 4.1
5.1 5.2 5.0 4.7 4.6 4.9 4.4 3.7 2.9 2.7 2.6 2.8 2.9 3.1 3.1 3.1 3.2 3.5 4.0 5.0 5.6 6.2 6.5 5.6 4.7 4.4 4.3 4.2 4.0 3.8 3.8 3.7 3.7 3.6 3.6 3.7 3.9 3.9 4.2 4.4 4.4 4.6 4.7 4.6
5.0 5.1 4.9 5.2 4.8 4.4 4.2 3.8 3.3 2.9 3.0 3.0 3.2 3.2 3.1 3.1 3.2 3.5 4.0 4.7 5.5 6.0 5.9 5.4 5.3 5.0 4.8 4.5 4.3 4.2 4.0 3.9 4.0 4.1 4.1 4.3 4.5 4.7 4.9 5.2 5.4 5.4 5.5 5.5
5.0 5.3 5.3 5.1 4.7 4.5 4.4 4.1 3.7 3.2 3.2 3.2 3.3 3.3 2.9 3.0 3.1 3.4 3.9 4.8 5.2 5.2 5.4 5.8 5.7 5.4 5.1 5.0 4.6 4.5 4.5 4.4 4.4 4.5 4.7 5.1 5.3 5.6 5.8 6.0 6.0 6.0 6.0 5.8
5.4 5.3 5.4 4.9 4.6 4.4 4.3 4.1 3.9 3.6 3.4 3.2 3.1 3.0 3.0 3.0 3.3 3.6 4.3 4.5 5.1 5.3 5.9 6.2 6.2 5.8 5.4 5.2 5.0 4.8 4.7 4.7 4.7 4.6 4.8 5.3 5.4 5.5 5.8 5.9 5.9 5.8 5.6 5.3
5.3 5.2 5.2 5.0 4.6 4.4 4.4 4.2 3.9 3.8 3.5 3.3 2.9 3.2 3.7 3.5 3.5 3.7 4.1 4.5 4.9 5.5 5.9 6.3 6.5 6.1 5.7 5.3 5.1 5.0 5.0 4.8 4.9 5.0 5.1 5.2 5.4 5.6 5.7 5.6 5.5 5.3 5.2 5.4
Wind_Speed
37 38 36 36 37 40 16 4 3 4 4 4 3 1 8 15 6 7 7 1 5 4 3 3 4 5 8 24 19 10 7 6 6 11 4 5 3 10 7 8 12 3 5 6
37 37 36 35 38 38 7 2 2 3 5 4 4 4 6 4 11 8 5 4 4 1 4 4 5 5 11 9 20 11 7 4 5 4 4 3 12 10 20 4 4 8 7 5
36 36 36 35 36 39 6 3 4 4 4 2 2 6 3 5 7 3 7 6 3 12 5 3 7 8 8 17 9 19 6 4 7 12 19 6 2 11 3 5 3 8 12 7
36 36 36 35 34 38 4 3 3 2 4 4 8 7 4 4 7 4 6 5 4 6 5 10 8 4 6 10 9 7 17 4 5 6 11 11 9 9 16 11 20 8 9 11
35 35 34 31 29 29 3 3 4 2 3 4 6 5 4 6 10 3 5 4 9 11 11 10 15 17 5 5 6 5 6 6 1 3 9 16 12 18 13 18 11 20 7 6
34 34 33 31 25 16 2 2 3 3 5 4 4 3 6 11 15 9 8 14 17 15 17 14 18 14 12 11 4 5 4 8 7 9 1 5 1 19 21 16 15 14 13 13
33 34 32 29 23 13 2 2 3 2 4 1 3 9 11 14 15 17 22 16 12 5 12 11 10 14 15 15 17 14 5 7 4 3 4 5 7 12 15 20 16 16 12 7
34 33 33 28 22 17 1 2 2 2 3 3 9 8 4 13 13 15 14 15 12 13 9 3 3 3 3 9 9 11 18 11 2 5 3 4 3 5 16 13 13 7 11 6
36 35 32 28 22 16 2 3 2 1 3 4 4 9 3 6 6 6 6 11 11 5 4 3 4 4 4 3 5 3 6 5 8 4 5 11 10 4 4 4 11 10 17 11
37 36 33 27 19 14 3 2 3 1 3 3 3 3 5 5 5 4 5 13 9 8 2 3 3 3 3 3 8 6 5 3 8 4 4 6 6 4 2 9 12 4 10 13
39 36 31 25 17 12 3 4 5 2 3 6 3 2 6 5 3 4 7 7 1 3 5 2 2 2 4 2 2 6 7 6 3 3 3 7 7 3 9 3 2 3 1 7
40 36 29 22 16 10 6 1 4 2 3 5 3 6 7 5 2 3 3 3 4 3 3 3 4 3 1 3 3 1 3 0 4 5 4 2 4 3 5 4 3 4 2 6
40 34 26 19 15 11 3 0 3 2 2 4 3 2 5 3 4 4 2 2 3 3 1 2 3 5 3 2 2 3 6 9 2 1 3 3 6 5 6 5 4 3 6 13
40 33 23 17 15 9 6 3 4 2 2 3 5 2 5 5 4 9 9 9 4 4 3 3 3 2 5 3 4 4 5 9 7 1 4 6 5 6 4 6 7 10 9 11
38 30 21 16 15 7 10 4 5 5 2 2 4 7 3 4 12 12 6 8 6 3 2 1 1 2 3 1 4 5 8 7 5 3 9 9 4 8 3 6 7 8 16 16
36 26 18 13 14 10 1 1 1 10 2 2 3 3 5 13 19 10 5 3 1 1 2 2 2 2 4 2 3 5 13 12 9 6 15 12 9 8 7 8 10 12 14 16
34 23 12 7 10 6 3 3 4 17 1 1 4 5 6 7 7 4 3 4 2 1 2 3 2 4 5 3 4 17 17 16 17 13 9 4 8 4 8 13 13 17 16 15
32 22 6 7 7 7 3 3 20 11 2 4 3 5 6 7 4 4 2 3 2 3 1 2 3 4 4 4 14 16 16 18 10 12 5 1 3 7 10 11 14 15 14 14
27 17 3 4 4 3 3 22 9 9 4 3 3 4 4 6 3 3 4 3 2 2 2 2 3 5 7 10 15 15 16 13 13 10 11 9 10 11 9 12 13 16 14 14
18 8 4 4 2 19 7 6 4 5 4 4 2 0 3 4 3 3 4 2 2 3 2 2 4 3 5 10 11 12 12 13 11 5 6 8 9 10 12 12 11 13 13 14
4 4 0 3 14 3 4 4 4 3 5 3 2 2 6 3 2 3 2 3 3 3 4 3 3 4 9 13 13 13 13 12 10 9 11 9 8 9 12 13 13 14 14 14
3 3 3 3 5 4 7 2 4 4 3 4 2 4 2 4 3 3 3 3 3 3 4 3 3 4 9 11 13 13 13 12 12 13 13 13 13 10 10 11 12 12 12 12
2 4 5 4 4 8 6 4 5 4 4 3 4 7 2 4 2 3 3 4 3 4 4 3 2 6 7 9 9 10 12 13 13 14 14 14 15 15 13 12 10 11 11 10
3 3 5 4 3 2 4 4 3 3 1 4 3 2 1 3 3 2 3 3 4 4 4 2 4 6 7 7 7 7 10 11 12 12 12 13 12 12 11 10 7 9 11 10
2 3 1 1 3 1 3 2 2 2 0 2 3 2 1 3 3 2 4 6 4 2 1 2 5 5 5 6 6 6 7 8 8 8 9 10 9 9 9 8 8 9 9 10
3 3 3 1 3 2 1 1 2 1 1 1 2 1 4 2 1 4 1 1 3 2 1 3 3 4 4 4 4 4 4 5 5 6 6 6 7 7 5 6 8 8 8 8
2 2 1 2 2 4 3 3 3 2 3 1 3 3 4 3 4 2 0 4 2 2 2 1 3 4 4 3 3 3 3 4 4 4 5 5 5 5 7 9 7 6 6 5
Wind_Direction
6 3 1 357 354 352 354 342 31 301 16 52 25 0 308 312 319 302 279 293 233 245 283 259 252 302 236 193 201 189 197 126 160 199 310 192 150 179 167 196 212 209 166 246
4 4 2 359 354 357 337 6 299 319 59 39 330 284 302 273 345 329 352 293 269 260 307 304 251 293 288 250 212 197 178 164 115 107 357 313 205 202 201 167 128 203 177 257
3 5 1 1 355 352 3 25 6 335 23 357 65 328 269 353 305 326 340 277 340 352 277 212 283 306 314 332 272 233 175 164 167 193 204 119 179 202 165 165 137 190 223 196
2 3 5 1 360 351 33 38 31 103 313 330 328 316 283 331 6 5 310 310 357 358 292 319 249 269 313 277 264 306 230 200 169 189 160 174 170 180 201 192 215 187 199 201
360 1 2 2 4 354 37 24 345 292 265 314 330 322 301 344 330 276 305 246 306 313 284 265 291 309 316 280 301 226 202 225 55 264 189 188 190 197 196 221 223 226 194 230
358 357 360 1 6 19 356 331 306 267 284 322 37 260 338 308 314 290 232 297 293 287 272 266 257 265 248 252 269 314 164 163 171 236 264 122 24 194 200 213 217 204 211 214
355 355 356 357 358 10 207 285 289 275 278 58 246 311 310 305 309 292 292 301 291 257 345 307 237 234 243 250 255 231 229 146 126 214 132 203 223 197 196 207 215 211 219 190
353 353 352 352 353 349 209 303 297 301 295 218 307 312 263 312 296 285 282 283 265 283 280 264 276 187 211 235 230 221 211 183 171 170 211 296 332 201 195 189 235 199 200 192
352 350 350 350 349 348 349 274 245 326 304 276 262 331 277 307 320 313 264 318 315 215 187 199 231 184 202 191 162 337 105 116 190 157 178 206 228 238 220 102 235 195 193 178
351 351 350 350 352 347 7 264 278 233 261 275 14 295 316 303 297 273 303 341 337 345 226 262 301 285 90 253 155 153 143 151 199 175 202 278 245 206 120 163 239 192 200 175
352 352 352 353 355 354 22 267 266 199 280 280 243 226 311 315 302 306 314 327 18 295 340 311 236 249 216 215 162 163 167 154 178 190 188 257 3 84 169 260 320 320 284 168
353 353 355 358 354 5 358 329 2 310 247 256 270 251 241 190 245 292 317 275 299 322 323 360 312 298 228 197 193 176 177 142 183 185 188 29 346 348 312 295 289 326 116 137
352 353 358 1 3 10 358 21 346 0 344 308 359 279 235 186 214 184 266 259 340 293 318 301 280 278 335 325 270 90 12 19 75 149 5 12 353 344 4 359 354 31 107 124
352 352 357 2 360 10 73 77 338 79 255 284 281 309 303 275 220 235 215 257 266 256 228 234 261 315 21 351 15 45 349 331 339 329 3 322 11 1 18 25 46 72 71 108
351 351 353 357 3 92 105 104 74 50 101 254 287 307 283 331 332 321 267 229 271 292 276 264 315 9 353 343 80 31 348 359 350 300 326 314 305 321 4 84 74 92 107 103
349 350 351 360 9 156 172 356 99 1 133 282 321 301 354 348 337 323 334 306 251 261 290 330 63 53 324 49 87 21 347 320 300 287 308 293 309 19 30 75 85 89 96 103
347 348 351 16 32 62 91 158 294 338 72 310 336 344 332 334 329 320 331 321 331 34 347 18 25 21 20 49 20 334 330 320 310 296 298 271 359 11 58 80 85 95 93 91
343 346 1 46 85 82 22 327 343 357 66 62 50 311 323 1 326 317 325 318 353 355 69 21 29 23 26 61 339 330 328 323 312 335 322 50 66 64 74 86 96 83 86 93
341 341 101 56 41 24 284 316 348 35 83 95 75 356 309 354 302 293 310 331 320 332 42 43 65 25 40 336 331 332 331 325 300 0 30 43 68 70 66 87 89 96 93 93
346 25 40 2 291 319 339 14 21 17 353 33 86 322 290 354 323 292 335 337 304 354 58 66 66 97 341 339 337 333 337 336 337 1 18 28 58 70 73 73 79 88 94 97
27 28 350 251 322 47 31 30 57 340 11 11 303 78 325 313 296 298 291 321 286 335 19 32 56 19 353 345 350 353 352 359 8 45 49 41 57 80 86 79 79 82 85 90
246 269 310 358 29 33 71 333 341 45 320 331 4 303 264 291 279 281 304 295 314 3 343 51 53 355 348 350 351 356 2 9 26 39 48 46 49 50 68 77 78 78 81 82
50 49 48 46 321 36 73 346 315 347 337 334 341 328 274 318 290 282 320 337 329 312 39 64 50 333 350 355 356 356 7 17 27 39 43 46 49 45 47 60 60 75 79 80
73 67 19 101 346 193 181 180 197 246 252 334 334 278 290 293 318 291 10 314 39 42 39 6 351 352 350 355 1 6 6 15 26 33 40 44 44 44 40 42 56 77 76 75
98 78 187 169 180 114 187 177 76 292 104 47 5 327 240 285 304 15 8 11 42 59 280 327 349 352 354 356 3 10 13 15 27 28 37 39 42 47 46 33 44 60 68 68
85 59 93 299 79 295 338 174 219 232 25 30 69 315 357 308 340 41 288 84 223 247 299 321 324 344 346 350 357 11 17 30 38 40 44 42 38 45 45 44 44 47 55 60
108 255 231 138 104 172 179 149 199 173 76 102 87 34 239 314 16 349 226 188 225 296 283 308 333 336 334 348 14 23 24 40 45 48 45 46 43 44 48 46 26 38 46 46